TimeMST,TemperatureF,Dew PointF,Humidity,Sea Level PressureIn,VisibilityMPH,Wind Direction,Wind SpeedMPH,Gust SpeedMPH,PrecipitationIn,Events,Conditions,WindDirDegrees,DateUTC
12:15 AM,23.5,1.4,38,30.14,10.0,West,12.7,16.1,N/A,,Clear,260,2013-01-05 07:15:00
12:35 AM,21.9,2.3,43,30.15,10.0,NW,8.1,-,N/A,,Clear,320,2013-01-05 07:35:00
12:55 AM,20.8,2.7,45,30.15,10.0,WNW,5.8,-,N/A,,Clear,290,2013-01-05 07:55:00
1:15 AM,17.6,4.3,56,30.15,10.0,West,5.8,-,N/A,,Clear,270,2013-01-05 08:15:00
1:35 AM,16.0,2.7,56,30.17,10.0,West,6.9,-,N/A,,Clear,270,2013-01-05 08:35:00
1:55 AM,19.9,0.5,43,30.17,10.0,West,6.9,-,N/A,,Clear,270,2013-01-05 08:55:00
2:15 AM,18.9,0.9,46,30.17,10.0,West,15.0,-,N/A,,Clear,260,2013-01-05 09:15:00
2:35 AM,19.6,0.1,43,30.18,10.0,West,8.1,-,N/A,,Clear,260,2013-01-05 09:35:00
2:55 AM,15.4,1.0,53,30.19,10.0,WSW,5.8,-,N/A,,Clear,250,2013-01-05 09:55:00
3:15 AM,14.2,1.2,56,30.20,10.0,Calm,Calm,-,N/A,,Clear,0,2013-01-05 10:15:00
3:35 AM,12.6,0.3,58,30.19,10.0,Calm,Calm,-,N/A,,Clear,0,2013-01-05 10:35:00
3:55 AM,13.3,0.5,57,30.20,10.0,SW,3.5,-,N/A,,Clear,230,2013-01-05 10:55:00
4:15 AM,18.5,-2.0,41,30.20,10.0,West,10.4,17.3,N/A,,Clear,270,2013-01-05 11:15:00
4:35 AM,19.9,-3.3,36,30.19,10.0,SW,5.8,-,N/A,,Clear,220,2013-01-05 11:35:00
4:55 AM,16.0,-0.8,48,30.20,10.0,West,4.6,-,N/A,,Clear,260,2013-01-05 11:55:00
5:15 AM,14.9,-2.2,47,30.21,10.0,Calm,Calm,-,N/A,,Clear,0,2013-01-05 12:15:00
5:35 AM,12.0,-1.3,55,30.22,10.0,Calm,Calm,-,N/A,,Clear,0,2013-01-05 12:35:00
5:55 AM,13.5,-1.8,51,30.23,10.0,NW,4.6,-,N/A,,Clear,310,2013-01-05 12:55:00
6:15 AM,12.6,-2.0,52,30.23,10.0,Calm,Calm,-,N/A,,Clear,0,2013-01-05 13:15:00
6:35 AM,12.4,-2.4,52,30.24,10.0,WSW,3.5,-,N/A,,Clear,240,2013-01-05 13:35:00
6:55 AM,16.5,-1.3,46,30.24,10.0,NW,11.5,-,N/A,,Clear,320,2013-01-05 13:55:00
7:15 AM,18.0,-2.0,41,30.25,10.0,NW,6.9,-,N/A,,Clear,320,2013-01-05 14:15:00
7:35 AM,16.9,-2.0,43,30.27,10.0,West,3.5,-,N/A,,Clear,280,2013-01-05 14:35:00
7:55 AM,17.4,-1.8,43,30.27,10.0,WNW,3.5,-,N/A,,Clear,300,2013-01-05 14:55:00
8:15 AM,20.3,-1.8,38,30.28,10.0,NNW,8.1,-,N/A,,Clear,340,2013-01-05 15:15:00
8:55 AM,20.7,-0.2,40,30.29,10.0,NNW,10.4,-,N/A,,Clear,340,2013-01-05 15:55:00
9:15 AM,22.6,0.5,38,30.29,10.0,NNW,12.7,-,N/A,,Clear,340,2013-01-05 16:15:00
9:55 AM,28.6,2.5,33,30.30,10.0,Calm,Calm,-,N/A,,Clear,0,2013-01-05 16:55:00
10:15 AM,28.9,3.6,34,30.30,10.0,Calm,Calm,-,N/A,,Clear,0,2013-01-05 17:15:00
10:35 AM,31.8,4.8,32,30.29,10.0,Calm,Calm,-,N/A,,Clear,0,2013-01-05 17:35:00
10:55 AM,33.1,1.9,27,30.27,10.0,NW,5.8,-,N/A,,Clear,310,2013-01-05 17:55:00
11:15 AM,35.4,2.5,25,30.25,10.0,West,8.1,-,N/A,,Clear,280,2013-01-05 18:15:00
11:35 AM,36.5,1.8,23,30.25,10.0,SW,3.5,-,N/A,,Clear,230,2013-01-05 18:35:00
11:55 AM,39.2,3.2,22,30.24,10.0,SW,6.9,-,N/A,,Clear,230,2013-01-05 18:55:00
12:15 PM,41.2,0.1,18,30.23,10.0,SW,10.4,-,N/A,,Clear,230,2013-01-05 19:15:00
12:35 PM,43.2,-0.4,16,30.23,10.0,SW,12.7,-,N/A,,Clear,230,2013-01-05 19:35:00
12:55 PM,43.3,-0.4,16,30.23,10.0,SSW,13.8,19.6,N/A,,Clear,210,2013-01-05 19:55:00
1:15 PM,42.8,-0.2,17,30.23,10.0,SW,11.5,19.6,N/A,,Clear,230,2013-01-05 20:15:00
1:35 PM,43.0,0.1,17,30.24,10.0,SW,11.5,20.7,N/A,,Clear,230,2013-01-05 20:35:00
1:55 PM,42.8,0.5,17,30.24,10.0,SW,11.5,21.9,N/A,,Clear,230,2013-01-05 20:55:00
2:15 PM,42.4,0.3,17,30.25,10.0,SW,12.7,21.9,N/A,,Clear,220,2013-01-05 21:15:00
2:35 PM,42.4,0.1,17,30.25,10.0,SW,13.8,23.0,N/A,,Clear,230,2013-01-05 21:35:00
2:55 PM,42.3,-0.4,17,30.26,10.0,SW,16.1,23.0,N/A,,Clear,230,2013-01-05 21:55:00
3:15 PM,42.1,-1.5,16,30.27,10.0,SSW,13.8,20.7,N/A,,Clear,210,2013-01-05 22:15:00
3:55 PM,40.6,-1.5,17,30.27,10.0,SW,12.7,17.3,N/A,,Clear,220,2013-01-05 22:55:00
4:15 PM,38.8,-1.1,19,30.27,10.0,SW,11.5,18.4,N/A,,Clear,220,2013-01-05 23:15:00
4:35 PM,37.2,-1.1,20,30.28,10.0,SW,16.1,23.0,N/A,,Clear,230,2013-01-05 23:35:00
4:55 PM,36.7,-0.9,20,30.29,10.0,SW,16.1,23.0,N/A,,Clear,230,2013-01-05 23:55:00
5:15 PM,35.1,-0.4,22,30.30,10.0,WSW,11.5,18.4,N/A,,Clear,240,2013-01-06 00:15:00
5:35 PM,34.9,-1.3,21,30.31,10.0,South,9.2,17.3,N/A,,Clear,190,2013-01-06 00:35:00
5:55 PM,34.0,-1.3,22,30.32,7.0,WSW,8.1,16.1,N/A,,Clear,250,2013-01-06 00:55:00
6:15 PM,31.5,-0.0,26,30.33,7.0,SW,9.2,-,N/A,,Clear,230,2013-01-06 01:15:00
6:55 PM,27.9,0.3,31,30.34,10.0,SSE,3.5,-,N/A,,Clear,160,2013-01-06 01:55:00
7:15 PM,27.0,1.0,33,30.35,10.0,SSE,4.6,-,N/A,,Clear,160,2013-01-06 02:15:00
7:35 PM,25.9,0.9,34,30.36,10.0,South,6.9,-,N/A,,Clear,180,2013-01-06 02:35:00
7:55 PM,24.8,0.7,35,30.37,10.0,SSW,5.8,-,N/A,,Clear,200,2013-01-06 02:55:00
8:15 PM,25.0,0.1,34,30.37,10.0,Calm,Calm,-,N/A,,Clear,0,2013-01-06 03:15:00
8:35 PM,25.0,-0.8,33,30.37,10.0,Calm,Calm,-,N/A,,Clear,0,2013-01-06 03:35:00
8:55 PM,21.9,1.8,42,30.38,10.0,Calm,Calm,-,N/A,,Clear,0,2013-01-06 03:55:00
9:15 PM,20.7,0.3,41,30.38,10.0,SSE,3.5,-,N/A,,Clear,150,2013-01-06 04:15:00
9:35 PM,18.5,0.5,45,30.39,10.0,Calm,Calm,-,N/A,,Clear,0,2013-01-06 04:35:00
9:55 PM,19.2,2.3,48,30.40,10.0,Calm,Calm,-,N/A,,Clear,0,2013-01-06 04:55:00
10:15 PM,18.5,1.2,47,30.41,10.0,Calm,Calm,-,N/A,,Clear,0,2013-01-06 05:15:00
10:35 PM,18.5,1.2,47,30.41,10.0,WSW,4.6,-,N/A,,Clear,250,2013-01-06 05:35:00
10:55 PM,15.4,1.8,55,30.42,10.0,North,3.5,-,N/A,,Clear,350,2013-01-06 05:55:00
11:15 PM,17.2,1.8,51,30.42,10.0,WNW,3.5,-,N/A,,Clear,290,2013-01-06 06:15:00
11:35 PM,17.2,1.6,50,30.42,10.0,West,4.6,-,N/A,,Clear,280,2013-01-06 06:35:00
11:55 PM,18.0,0.9,47,30.42,10.0,Calm,Calm,-,N/A,,Clear,0,2013-01-06 06:55:00